Weather History for Frankfort, MI

Change the Weather History Date:

Thursday, April 3, 2014

  Actual Average (KTVC) Record (KTVC)
Temperature  
Mean Temperature 34 °F 38 °F  
Max Temperature 39 °F 48 °F 73 °F (1981)
Min Temperature 28 °F 28 °F 3 °F (1965)
Degree Days  
Heating Degree Days 32 27  
Month to date heating degree days 83  
Since 1 July heating degree days 6485  
Cooling Degree Days 0 0  
Month to date cooling degree days 0  
Year to date cooling degree days 0  
Moisture  
Dew Point 21 °F    
Average Humidity 60    
Maximum Humidity 69    
Minimum Humidity 52    
Precipitation  
Precipitation 0.00 in 0.08 in 1.10 in (2006)
Month to date precipitation 0.26  
Year to date precipitation 6.44  
Sea Level Pressure  
Sea Level Pressure 30.07 in    
Wind  
Wind Speed 6 mph (East)    
Max Wind Speed 12 mph    
Max Gust Speed 21 mph    
Visibility 10 miles    
Events Rain    
T = Trace of Precipitation, MM = Missing Value Source: NWS Daily Summary

Daily Weather History Graph

Daily Weather History Graph

Search for Another Location

Airport:

Trip Planner

Search our weather history database for the weather conditions in past years. The results will help you decide how hot, cold, wet, or windy it might be!

Date:

Astronomy

Apr. 03, 2014 Rise Set
Actual Time 7:22 AM EDT 8:14 PM EDT
Civil Twilight 6:52 AM EDT 8:44 PM EDT
Nautical Twilight 6:17 AM EDT 9:19 PM EDT
Astronomical Twilight 5:40 AM EDT 9:56 PM EDT
Moon 9:42 AM EDT (4/3) No Moon Set
Length of Visible Light 13h 51m
Length of Day
12h 52m
Waxing Crescent, 17% of the Moon is Illuminated
Apr 3
Waxing Crescent
Apr 7
First Quarter
Apr 15
Full
Apr 22
Last Quarter
Apr 29
New

Hourly Weather History & Observations

Time (EDT) Temp. Windchill Dew Point Humidity Pressure Visibility Wind Dir Wind Speed Gust Speed Precip Events Conditions
12:12 AM 30.9 °F 25.2 °F 19.2 °F 62% 30.23 in 10.0 mi East 5.8 mph - N/A   Clear
12:32 AM 30.9 °F 27.5 °F 19.2 °F 62% 30.24 in 10.0 mi ENE 3.5 mph - N/A   Clear
12:52 AM 30.0 °F 25.2 °F 19.2 °F 64% 30.23 in 10.0 mi ENE 4.6 mph - N/A   Clear
1:12 AM 30.4 °F - 19.4 °F 64% 30.23 in 10.0 mi Calm Calm - N/A   Clear
1:32 AM 30.2 °F 26.7 °F 19.9 °F 66% 30.23 in 10.0 mi NE 3.5 mph - N/A   Clear
1:52 AM 30.0 °F 24.1 °F 20.1 °F 67% 30.22 in 10.0 mi ENE 5.8 mph - N/A   Clear
2:12 AM 30.4 °F 23.6 °F 19.6 °F 64% 30.22 in 10.0 mi ENE 6.9 mph - N/A   Clear
2:32 AM 30.6 °F 24.7 °F 19.0 °F 62% 30.21 in 10.0 mi ENE 5.8 mph - N/A   Clear
2:52 AM 30.7 °F 24.1 °F 19.2 °F 62% 30.19 in 10.0 mi ENE 6.9 mph - N/A   Clear
3:13 AM 30.7 °F 24.9 °F 18.5 °F 60% 30.19 in 10.0 mi ENE 5.8 mph - N/A   Clear
3:33 AM 30.9 °F 23.5 °F 18.5 °F 60% 30.19 in 10.0 mi ENE 8.1 mph - N/A   Clear
3:53 AM 30.7 °F 22.6 °F 19.0 °F 62% 30.17 in 10.0 mi ENE 9.2 mph - N/A   Clear
4:13 AM 30.2 °F 23.4 °F 19.6 °F 65% 30.17 in 10.0 mi ENE 6.9 mph - N/A   Clear
4:33 AM 29.7 °F 22.8 °F 19.9 °F 67% 30.16 in 10.0 mi East 6.9 mph - N/A   Clear
4:53 AM 29.3 °F 23.2 °F 19.8 °F 68% 30.17 in 10.0 mi East 5.8 mph - N/A   Clear
5:13 AM 29.3 °F 23.2 °F 19.8 °F 68% 30.17 in 10.0 mi East 5.8 mph - N/A   Scattered Clouds
5:33 AM 29.3 °F 22.3 °F 19.9 °F 68% 30.17 in 10.0 mi ENE 6.9 mph - N/A   Mostly Cloudy
5:53 AM 29.1 °F 24.1 °F 19.9 °F 69% 30.15 in 10.0 mi ENE 4.6 mph - N/A   Overcast
6:14 AM 28.9 °F 20.4 °F 19.9 °F 69% 30.15 in 10.0 mi ENE 9.2 mph - N/A   Overcast
6:34 AM 29.3 °F 25.6 °F 19.2 °F 66% 30.15 in 10.0 mi East 3.5 mph - N/A   Overcast
6:54 AM 29.7 °F 24.7 °F 18.5 °F 63% 30.18 in 10.0 mi East 4.6 mph - N/A   Overcast
7:14 AM 29.7 °F 22.0 °F 18.3 °F 63% 30.16 in 10.0 mi ENE 8.1 mph - N/A   Overcast
7:34 AM 29.3 °F 20.2 °F 18.5 °F 64% 30.15 in 10.0 mi ENE 10.4 mph - N/A   Overcast
7:54 AM 29.5 °F 21.8 °F 18.5 °F 64% 30.16 in 10.0 mi East 8.1 mph - N/A   Overcast
8:14 AM 29.5 °F 21.1 °F 18.5 °F 64% 30.15 in 10.0 mi ENE 9.2 mph - N/A   Overcast
8:34 AM 29.7 °F 22.0 °F 18.9 °F 64% 30.14 in 10.0 mi East 8.1 mph 18.4 mph N/A   Overcast
8:54 AM 29.8 °F 21.5 °F 19.4 °F 65% 30.14 in 10.0 mi East 9.2 mph 16.1 mph N/A   Overcast
9:15 AM 30.2 °F 22.6 °F 19.8 °F 65% 30.12 in 10.0 mi East 8.1 mph - N/A   Overcast
9:35 AM 31.1 °F 23.7 °F 20.1 °F 64% 30.11 in 10.0 mi East 8.1 mph - N/A   Overcast
9:55 AM 31.8 °F 24.6 °F 20.3 °F 62% 30.10 in 10.0 mi East 8.1 mph 17.3 mph N/A   Overcast
10:15 AM 32.0 °F 23.6 °F 20.3 °F 62% 30.08 in 10.0 mi East 10.4 mph 17.3 mph N/A   Overcast
10:35 AM 32.5 °F 27.1 °F 20.1 °F 60% 30.09 in 10.0 mi ESE 5.8 mph 16.1 mph N/A   Overcast
10:55 AM 32.9 °F 25.9 °F 20.1 °F 59% 30.09 in 10.0 mi East 8.1 mph 20.7 mph N/A   Overcast
11:15 AM 33.3 °F 27.1 °F 20.5 °F 59% 30.09 in 10.0 mi ESE 6.9 mph - N/A   Overcast
11:35 AM 33.8 °F 30.8 °F 20.3 °F 58% 30.11 in 10.0 mi East 3.5 mph - N/A   Overcast
11:55 AM 34.2 °F 29.0 °F 20.7 °F 58% 30.10 in 10.0 mi East 5.8 mph - N/A   Overcast
12:16 PM 35.4 °F 28.4 °F 21.4 °F 57% 30.08 in 10.0 mi East 9.2 mph - N/A   Overcast
12:36 PM 36.3 °F 31.6 °F 21.2 °F 54% 30.07 in 10.0 mi ESE 5.8 mph - N/A   Overcast
12:56 PM 36.9 °F 33.1 °F 21.4 °F 54% 30.05 in 10.0 mi East 4.6 mph - N/A   Overcast
1:16 PM 37.4 °F 29.8 °F 21.6 °F 53% 30.05 in 10.0 mi East 11.5 mph - N/A   Overcast
1:36 PM 37.4 °F 32.1 °F 22.1 °F 54% 30.05 in 10.0 mi East 6.9 mph - N/A   Overcast
1:56 PM 37.6 °F 33.1 °F 21.9 °F 53% 30.04 in 10.0 mi East 5.8 mph - N/A   Overcast
2:16 PM 38.3 °F 34.8 °F 22.5 °F 53% 30.04 in 10.0 mi East 4.6 mph - N/A   Overcast
2:36 PM 38.5 °F 33.4 °F 22.1 °F 52% 30.03 in 10.0 mi ESE 6.9 mph - N/A   Overcast
2:51 PM 38.7 °F 33.6 °F 22.5 °F 52% 30.03 in 10.0 mi East 6.9 mph - N/A   Overcast
3:11 PM 38.8 °F 33.2 °F 22.6 °F 52% 30.01 in 10.0 mi East 8.1 mph - N/A   Overcast
3:32 PM 39.2 °F 35.0 °F 22.8 °F 52% 30.00 in 10.0 mi East 5.8 mph - N/A   Overcast
3:52 PM 39.2 °F 35.0 °F 22.8 °F 52% 30.00 in 10.0 mi East 5.8 mph - N/A   Overcast
4:12 PM 39.6 °F 33.0 °F 23.2 °F 52% 29.99 in 10.0 mi East 10.4 mph - N/A   Overcast
4:32 PM 39.7 °F 33.2 °F 23.7 °F 53% 29.96 in 10.0 mi East 10.4 mph - N/A   Overcast
4:52 PM 39.4 °F 32.7 °F 23.7 °F 54% 29.94 in 10.0 mi ENE 10.4 mph 20.7 mph N/A   Overcast
5:12 PM 39.2 °F 34.2 °F 24.6 °F 56% 29.93 in 10.0 mi East 6.9 mph - N/A   Overcast
5:32 PM 39.2 °F 35.0 °F 24.4 °F 56% 29.93 in 10.0 mi ENE 5.8 mph - N/A   Overcast
5:52 PM 39.4 °F 36.1 °F 24.1 °F 54% 29.93 in 10.0 mi East 4.6 mph - N/A   Overcast
6:12 PM 39.6 °F 35.4 °F 23.7 °F 53% 29.93 in 10.0 mi East 5.8 mph - N/A   Overcast
6:33 PM 39.6 °F 36.3 °F 23.5 °F 53% 29.93 in 10.0 mi East 4.6 mph - N/A   Overcast
6:53 PM 39.6 °F 34.7 °F 23.7 °F 53% 29.94 in 10.0 mi East 6.9 mph - N/A   Overcast
7:13 PM 39.2 °F 34.2 °F 24.1 °F 55% 29.93 in 10.0 mi East 6.9 mph - N/A Rain Light Rain
7:33 PM 38.7 °F 31.8 °F 24.8 °F 58% 29.93 in 10.0 mi East 10.4 mph 17.3 mph N/A Rain Light Rain
7:53 PM 38.3 °F 31.4 °F 25.2 °F 59% 29.93 in 10.0 mi ESE 10.4 mph - N/A   Overcast
8:13 PM 37.9 °F 31.5 °F 25.7 °F 61% 29.91 in 10.0 mi East 9.2 mph 17.3 mph N/A   Overcast
8:33 PM 37.4 °F 30.8 °F 25.7 °F 63% 29.90 in 10.0 mi East 9.2 mph - N/A   Overcast
8:53 PM 36.7 °F 31.2 °F 25.7 °F 64% 29.89 in 10.0 mi ENE 6.9 mph - N/A   Overcast
9:13 PM 36.5 °F 30.3 °F 25.5 °F 64% 29.89 in 10.0 mi East 8.1 mph 17.3 mph N/A   Overcast
9:54 PM 36.3 °F 30.8 °F 25.0 °F 63% 29.87 in 10.0 mi East 6.9 mph - N/A   Overcast
10:14 PM 36.5 °F 29.7 °F 24.6 °F 62% 29.87 in 10.0 mi ESE 9.2 mph 16.1 mph N/A   Overcast
10:34 PM 36.5 °F 29.7 °F 24.1 °F 61% 29.88 in 10.0 mi East 9.2 mph - N/A   Overcast
11:54 PM 35.8 °F 30.9 °F 24.8 °F 64% 29.85 in 10.0 mi ESE 5.8 mph - N/A   Overcast